Regional Weather Roundup
Issued by NWS Cleveland, OH

Home | Current Version | Previous Version | Text Only | Print | Product List | Glossary Off
Versions: 1 2 3 4 5 6 7 8 9 10 11 12 13 14 15 16 17 18 19 20 21 22 23 24 25 26 27 28 29 30 31 32 33 34 35 36 37 38 39 40 41 42 43 44 45 46 47 48 49 50

000
ASUS41 KCLE 212200
RWRCLE
OHIO REGIONAL WEATHER ROUNDUP
NATIONAL WEATHER SERVICE WILMINGTON, OH
600 PM EDT MON MAY 21 2018

NOTE: "FAIR" INDICATES FEW OR NO CLOUDS BELOW 12,000 FEET WITH NO
SIGNIFICANT WEATHER AND/OR OBSTRUCTIONS TO VISIBILITY.

OHZ001>008-015>018-024>027-034-035-043-044-212300-
   NORTHWEST OHIO

CITY           SKY/WX    TMP DP  RH WIND       PRES   REMARKS
DEFIANCE       LGT RAIN  61  57  87 NE12      30.07F
FINDLAY        FAIR      68  60  75 NE13      30.04F
TOLEDO EXPRESS LGT RAIN  58  57  97 E12G18    30.08F
TOLEDO EXEC    PTSUNNY   58  52  80 NE14G21   30.10F
LIMA           CLOUDY    69  66  90 N17       30.03S
$$

OHZ009>014-019>023-028>033-038-089-212300-
   NORTHEAST OHIO

CITY           SKY/WX    TMP DP  RH WIND       PRES   REMARKS
CLE-HOPKINS    CLOUDY    66  53  63 N8        30.10F
CLE-LAKEFRONT  FAIR      57  51  80 NE12      30.07F
CUY CO. ARPT   PTSUNNY   75  57  53 N12       30.09F
LORAIN-ELYRIA  CLOUDY    64  49  57 NE16      30.09S
ASHTABULA      FAIR      70  52  52 NE5       30.11F
AKRON-CANTON   PTSUNNY   78  59  51 SE9       30.08F
WOOSTER        NOT AVBL
MANSFIELD      FAIR      79  62  56 E6        30.06F
YOUNGSTOWN     CLOUDY    76  57  51 E3        30.09F
$$

OHZ042-051>053-060>062-070>072-077>081-212300-
  SOUTHWEST OHIO

CITY           SKY/WX    TMP DP  RH WIND       PRES   REMARKS
CINC-COVINGTON PTSUNNY   84  63  49 SW8       30.01S
CINC-LUNKEN    FAIR      86  67  52 S8        29.99F
HAMILTON       FAIR      85  66  53 SW5       30.00F
DAYTON         NOT AVBL
WRIGHT-PAT AFB FAIR      84  65  52 SW7       30.00F
DAYTON GENERAL FAIR      85  63  47 SW7       30.00F
WILMINGTON     FAIR      83  68  60 CALM      30.01F
$$

OHZ036-037-039>041-045>050-054>059-063>069-073>076-082>088-212300-
  CENTRAL AND SOUTHEAST OHIO

CITY           SKY/WX    TMP DP  RH WIND       PRES   REMARKS
COLUMBUS       PTSUNNY   82  64  54 SE6       30.01F
OSU AIRPORT    FAIR      81  66  60 S6        30.01F
BOLTON FIELD   MOSUNNY   81  68  65 S7        30.03F
RICKENBACK AFB NOT AVBL
NEWARK         FAIR      81  65  58 VRB5      30.03F
MARION         PTSUNNY   80  63  55 S13       30.02F
LANCASTER      FAIR      79  67  66 E8        30.04F
ZANESVILLE     FAIR      80  67  64 CALM      30.05F
NEW PHILLY     FAIR      81  59  47 SE3       30.06F
$$




USA.gov is the U.S. government's official web portal to all federal, state and local government web resources and services.